Flag Weather past 2 weeks in Tsingtao, Shandong, China

Now
52 °F

Clear.


Feels Like: 51 °F
Forecast: 46 / 57 °F
Wind: 3 mph from Southwest

Location: Qingdao Airport

Current Time: Nov 26, 2014 at 11:27:51 AM

Latest Report: Nov 26, 2014 at 10:00 AM


Visibility: 4 mi

Pressure: 30.09 "Hg

Humidity: 41%

Dew point: 28 °F

Location of TsingtaoLocation

Historic Weather in Tsingtao — Graph

°F

Tsingtao temperature yesterday

Maximum temperature yesterday: 48 °F (at 12:00 PM)
Minimum temperature yesterday: 34 °F (at 6:00 AM)
Average temperature yesterday: 42 °F

Past Weeks' High & Low Weather Summary

 TemperatureHumidityPressure
High64 °F (Nov 21, 2:00 PM)93% (Nov 18, 4:00 AM)30.48 "Hg (Nov 18, 4:00 AM)
Low30 °F (Nov 13, 5:00 AM)14% (Nov 14, 2:00 PM)29.95 "Hg (Nov 11, 2:00 PM)
Average47 °F58%30.25 "Hg
* Reported Nov 11 10:00 AM — Nov 26 10:00 AM, Tsingtao, Weather by CustomWeather, © 2014

Note: Actual official high and low records may vary slightly from our data, if they occured in-between our weather recording intervals... More about our weather records

Advertising

Tsingtao weather history for previous 24 hours

 ConditionsComfort  
Time TempWeatherWind HumidityBarometerVisibility
10:00 AM
Nov 26
52 °FClear.3 mph41%30.09 "Hg4 mi
9:00 AM46 °FClear.1 mph57%30.09 "Hg4 mi
8:00 AM37 °FFog.1 mph81%30.12 "Hg2 mi
7:00 AM32 °FIce fog.1 mph87%30.12 "Hg2 mi
6:00 AM30 °FIce fog.No wind93%30.09 "Hg3 mi
5:00 AM32 °FIce fog.No wind87%30.07 "Hg2 mi
4:00 AM32 °FIce fog.1 mph87%30.07 "Hg2 mi
3:00 AM34 °FFog.1 mph81%30.07 "Hg2 mi
2:00 AM34 °FFog.1 mph87%30.07 "Hg2 mi
1:00 AM37 °FFog.1 mph75%30.07 "Hg2 mi
12:00 AM37 °FHaze.1 mph70%30.07 "Hg3 mi
11:00 PM
Nov 25
39 °FHaze.1 mph65%30.09 "Hg3 mi
10:00 PM39 °FClear.1 mph65%30.09 "Hg4 mi
9:00 PM41 °FClear.1 mph61%30.09 "Hg4 mi
8:00 PM41 °FClear.No wind57%30.09 "Hg4 mi
7:00 PM41 °FClear.3 mph57%30.09 "Hg10 mi
6:00 PM43 °FClear.3 mph53%30.09 "Hg10 mi
5:00 PM46 °FClear.3 mph43%30.09 "Hg10 mi
4:00 PM46 °FPassing clouds.3 mph43%30.09 "HgN/A
3:00 PM48 °FSunny.6 mph37%30.09 "Hg10 mi
2:00 PM48 °FSunny.8 mph37%30.09 "Hg10 mi
1:00 PM48 °FPassing clouds.6 mph37%30.09 "HgN/A
12:00 PM48 °FPassing clouds.8 mph34%30.12 "HgN/A
11:00 AM46 °FPassing clouds.10 mph43%30.15 "HgN/A
Weather by CustomWeather, © 2014

See weather overviewHow to use our weather pages